User: anonymous   Login
Location: Stigler
(35.2540°N, 95.1230°W)
Time: 07:15:46
(UTC-05:00)
Language:

Cosmos 1805 - Orbit

View from above orbital plane
View from above orbital plane
View from above satellite
View from above satellite

Ground track
Ground track

The orbit data is extracted from the following two-line orbital elements,

1 17191U 86097A   16206.94475243  .00001357  00000-0  78880-4 0  9993
2 17191  82.4762 351.6406 0006410 115.1615 245.0280 15.11272486614218
Epoch (UTC): 24 July 2016 22:40:26
Eccentricity: 0.0006410
inclination: 82.4762°
perigee height: 528 km
apogee height: 537 km
right ascension of ascending node: 351.6406°
argument of perigee: 115.1615°
revolutions per day: 15.11272486
mean anomaly at epoch: 245.0280°
orbit number at epoch: 61421

The dashed part of the orbit path shows where the satellite is in the earth's shadow,  

DLR